EW4155 Weather Reports


time (UTC)temp
F
wind
direction
speed
knots
gust
knots
rain 1hr
in
rain 24hr
in
rain mn
in
humidity
%
barometer
mb
20260506112505 57 26 0.9 7.0 0.00 0.00 0.00 83 1011.2
20260506112006 57 12 0.0 5.2 0.00 0.00 0.00 83 1011.0
20260506111513 57 354 1.7 5.2 0.00 0.00 0.00 83 1010.9
20260506111006 57 15 1.7 6.1 0.00 0.00 0.00 83 1010.8
20260506110509 57 30 0.9 7.0 0.00 0.00 0.00 84 1010.8
20260506110020 58 307 1.7 7.0 0.00 0.00 0.00 84 1010.7
20260506105507 58 8 2.6 7.0 0.00 0.00 0.00 85 1010.6
20260506105011 57 50 1.7 6.1 0.00 0.00 0.00 85 1010.6
20260506104522 57 338 0.9 6.1 0.00 0.00 0.00 85 1010.4
20260506104008 57 26 2.6 6.1 0.00 0.00 0.00 85 1010.3
20260506103506 57 347 0.9 6.1 0.00 0.00 0.00 86 1010.2
20260506103030 57 305 1.7 6.1 0.00 0.00 0.00 87 1010.3
20260506102509 57 69 2.6 7.0 0.00 0.00 0.00 87 1010.2
20260506102014 57 57 1.7 7.0 0.00 0.00 0.00 88 1010.1
20260506101538 57 1 0.9 7.0 0.00 0.00 0.00 88 1010.0
20260506101010 57 39 2.6 7.0 0.00 0.00 0.00 88 1010.0
20260506100506 58 42 1.7 6.1 0.00 0.00 0.00 88 1009.9
20260506100027 58 42 1.7 5.2 0.00 0.00 0.00 87 1009.8
20260506095506 58 96 0.9 7.0 0.00 0.00 0.00 87 1009.7
20260506095009 58 352 1.7 7.0 0.00 0.00 0.00 87 1009.7
20260506094504 59 5 0.9 6.1 0.00 0.00 0.00 87 1009.7
20260506094002 59 319 2.6 5.2 0.00 0.00 0.00 87 1009.7
20260506093504 59 124 0.0 5.2 0.00 0.00 0.00 87 1009.6
20260506093009 59 97 1.7 5.2 0.00 0.00 0.00 86 1009.6
20260506092507 59 281 0.9 5.2 0.00 0.00 0.00 86 1009.7
20260506092003 60 14 0.9 4.3 0.00 0.00 0.00 85 1009.6
20260506091510 60 274 1.7 4.3 0.00 0.00 0.00 85 1009.6
20260506091004 60 319 0.9 5.2 0.00 0.00 0.00 84 1009.6
20260506090502 61 333 1.7 5.2 0.00 0.00 0.00 83 1009.5
20260506090008 62 347 0.0 5.2 0.00 0.00 0.00 82 1009.3
20260506085503 62 323 1.7 4.3 0.00 0.00 0.00 82 1009.4
20260506085003 62 51 0.0 1.7 0.00 0.00 0.00 82 1009.3
20260506084509 62 8 0.0 3.5 0.00 0.00 0.00 82 1009.3
20260506084003 62 29 0.9 3.5 0.00 0.00 0.00 81 1009.2
20260506083502 62 6 0.9 3.5 0.00 0.00 0.00 81 1009.2
20260506083002 62 1 0.9 3.5 0.00 0.00 0.00 81 1009.0
20260506082504 62 41 0.9 3.5 0.00 0.00 0.00 82 1009.0
20260506082001 62 60 0.9 3.5 0.00 0.00 0.00 82 1008.9
20260506081505 62 26 0.9 6.1 0.00 0.00 0.00 81 1008.8
20260506081008 63 42 0.9 6.1 0.00 0.00 0.00 81 1008.8
20260506080504 63 72 0.9 6.1 0.00 0.00 0.00 82 1008.8
20260506073506 63 312 0.0 3.5 0.00 0.00 0.00 81 1009.1
20260506073012 63 340 0.9 3.5 0.00 0.00 0.00 81 1009.1
20260506072504 63 22 1.7 4.3 0.00 0.00 0.00 81 1009.1
20260506072003 63 81 1.7 4.3 0.00 0.00 0.00 81 1009.2
20260506071506 64 125 0.9 5.2 0.00 0.00 0.00 81 1009.1
20260506071005 64 51 0.9 5.2 0.00 0.00 0.00 81 1009.1
20260506070504 64 98 0.0 2.6 0.00 0.00 0.00 81 1009.2
20260506062507 65 51 3.5 7.0 0.00 0.00 0.00 80 1009.0
20260506062006 65 56 3.5 7.0 0.00 0.00 0.00 80 1009.1
20260506061511 65 70 0.9 5.2 0.00 0.00 0.00 81 1009.0
20260506061002 66 31 1.7 5.2 0.00 0.00 0.00 80 1008.9
20260506060504 66 63 1.7 5.2 0.00 0.00 0.00 80 1008.8
20260506051003 69 347 0.9 5.2 0.00 0.00 0.00 79 1008.7
20260506050503 69 33 1.7 5.2 0.00 0.00 0.00 79 1008.6
20260506045005 70 355 0.9 7.0 0.00 0.00 0.00 78 1008.6
20260506044509 70 359 0.9 7.0 0.00 0.00 0.00 78 1008.5
20260506044005 70 47 0.0 6.1 0.00 0.00 0.00 78 1008.5
20260506043508 70 302 1.7 6.1 0.00 0.00 0.00 77 1008.4
20260506043011 70 347 1.7 6.1 0.00 0.00 0.00 77 1008.6
20260506042508 71 42 1.7 5.2 0.00 0.00 0.00 76 1008.4
20260506042007 71 3 0.9 5.2 0.00 0.00 0.00 76 1008.4
20260506041514 71 48 0.9 6.1 0.00 0.00 0.00 76 1008.4
20260506041009 71 77 1.7 6.1 0.00 0.00 0.00 76 1008.3
20260506040506 72 174 0.9 6.1 0.00 0.00 0.00 76 1008.2
20260506040032 72 68 0.9 5.2 0.00 0.00 0.00 75 1008.2
20260506035507 72 45 1.7 5.2 0.00 0.00 0.00 75 1008.1
20260506035007 72 4 1.7 3.5 0.00 0.00 0.00 75 1007.9
20260506034514 72 21 0.0 2.6 0.00 0.00 0.00 75 1007.9
20260506034006 73 39 0.0 2.6 0.00 0.00 0.00 75 1008.0
20260506033504 73 20 0.0 3.5 0.00 0.00 0.00 76 1007.7
20260506033010 73 77 0.9 3.5 0.00 0.00 0.00 75 1007.6
20260506032508 73 58 0.0 5.2 0.00 0.00 0.00 75 1007.6
20260506032008 73 34 0.9 6.1 0.00 0.00 0.00 74 1007.6
20260506031514 74 29 0.9 6.1 0.00 0.00 0.00 74 1007.8
20260506031007 74 302 0.9 7.0 0.00 0.00 0.00 74 1007.9
20260506030508 75 25 1.7 8.7 0.00 0.00 0.00 74 1007.7
20260506030016 76 51 1.7 8.7 0.00 0.00 0.00 74 1007.5
20260506025507 77 54 0.0 2.6 0.00 0.00 0.00 83 1007.3
20260506025007 77 281 0.0 0.9 0.00 0.00 0.00 84 1007.1
20260506024518 77 280 0.0 0.9 0.00 0.00 0.00 84 1007.1
20260506024010 77 253 0.0 0.9 0.00 0.00 0.00 84 1007.0
20260506023508 77 289 0.0 4.3 0.00 0.00 0.00 84 1006.7
20260506023026 77 210 0.9 4.3 0.00 0.00 0.00 84 1006.5
20260506022504 77 212 0.0 2.6 0.00 0.00 0.00 84 1006.5
20260506022003 77 227 0.9 2.6 0.00 0.00 0.00 84 1006.2
20260506021523 77 169 0.0 0.9 0.00 0.00 0.00 84 1005.9
20260506021008 77 237 0.0 3.5 0.00 0.00 0.00 84 1005.9
20260506020507 77 209 0.0 3.5 0.00 0.00 0.00 84 1005.8
20260506020016 77 161 0.9 1.7 0.00 0.00 0.00 84 1005.8
20260506015507 78 143 0.0 1.7 0.00 0.00 0.00 84 1005.8
20260506015012 77 1 0.0 0.9 0.00 0.00 0.00 84 1005.9
20260506014516 78 9 0.0 1.7 0.00 0.00 0.00 84 1006.0
20260506014007 78 287 0.0 1.7 0.00 0.00 0.00 84 1005.7
20260506013508 78 328 0.9 1.7 0.00 0.00 0.00 83 1005.5
20260506013018 78 158 0.0 0.9 0.00 0.00 0.00 82 1005.3
20260506012507 78 157 0.0 3.5 0.00 0.00 0.00 82 1005.4
20260506012007 78 184 0.9 4.3 0.00 0.00 0.00 82 1005.2
20260506011507 79 167 0.9 4.3 0.00 0.00 0.00 82 1005.0
20260506011008 79 201 0.0 4.3 0.00 0.00 0.00 81 1004.9
20260506010511 79 108 0.9 4.3 0.00 0.00 0.00 81 1004.8
20260506010030 79 144 0.9 6.1 0.00 0.00 0.00 81 1004.7
20260506005508 79 131 1.7 6.1 0.00 0.00 0.00 80 1004.8
20260506005008 80 195 0.9 6.1 0.00 0.00 0.00 80 1005.0
20260506004520 80 119 2.6 9.6 0.00 0.00 0.00 79 1005.0
20260506004007 80 130 2.6 9.6 0.00 0.00 0.00 79 1005.0
20260506003512 81 150 1.7 7.0 0.00 0.00 0.00 78 1004.7
20260506003004 81 9 1.7 7.8 0.00 0.00 0.00 78 1004.7
20260506002506 82 174 1.7 7.8 0.00 0.00 0.00 77 1004.7
20260506002004 82 98 0.9 5.2 0.00 0.00 0.00 78 1004.6
20260506001508 82 120 0.9 5.2 0.00 0.00 0.00 78 1004.6
20260506001004 82 148 1.7 7.0 0.00 0.00 0.00 77 1004.5
20260506000508 82 155 0.9 7.0 0.00 0.00 0.00 78 1004.5
20260506000013 81 153 1.7 8.7 0.00 0.00 0.00 78 1004.5
20260505235504 82 142 3.5 9.6 0.00 0.00 0.00 77 1004.5
20260505235007 82 186 2.6 9.6 0.00 0.00 0.00 77 1004.6
20260505234531 82 106 3.5 7.0 0.00 0.00 0.00 77 1004.8
20260505234007 82 165 1.7 6.1 0.00 0.00 0.00 77 1004.9
20260505233506 82 173 1.7 8.7 0.00 0.00 0.00 76 1004.6
20260505233032 83 205 2.6 9.6 0.00 0.00 0.00 76 1004.5
20260505232508 83 134 2.6 9.6 0.00 0.00 0.00 76 1004.5
20260505232007 83 201 3.5 9.6 0.00 0.00 0.00 75 1004.4
20260505231503 84 113 4.3 9.6 0.00 0.00 0.00 75 1004.4
20260505231003 84 198 2.6 12.2 0.00 0.00 0.00 74 1004.4
20260505230504 84 276 4.3 12.2 0.00 0.00 0.00 74 1004.4
20260505230010 84 166 1.7 11.3 0.00 0.00 0.00 75 1004.4
20260505225505 84 174 3.5 11.3 0.00 0.00 0.00 74 1004.4
20260505225006 84 206 3.5 9.6 0.00 0.00 0.00 73 1004.2
20260505224514 85 200 3.5 8.7 0.00 0.00 0.00 73 1004.2
20260505224009 85 185 2.6 9.6 0.00 0.00 0.00 72 1004.1
20260505223512 86 181 4.3 9.6 0.00 0.00 0.00 72 1004.1
20260505223017 86 48 4.3 9.6 0.00 0.00 0.00 71 1004.1
20260505222513 87 179 3.5 9.6 0.00 0.00 0.00 71 1004.2
20260505222009 86 125 2.6 9.6 0.00 0.00 0.00 72 1004.1
20260505221524 87 181 4.3 7.8 0.00 0.00 0.00 70 1004.0
20260505221015 87 165 2.6 7.0 0.00 0.00 0.00 69 1003.8
20260505220507 88 188 1.7 7.8 0.00 0.00 0.00 68 1004.1
20260505220008 88 150 2.6 8.7 0.00 0.00 0.00 68 1004.2
20260505215505 88 208 3.5 8.7 0.00 0.00 0.00 68 1004.1
20260505215005 89 206 3.5 8.7 0.00 0.00 0.00 66 1003.9
20260505214512 89 147 2.6 6.1 0.00 0.00 0.00 66 1003.9
20260505214005 89 129 0.9 7.0 0.00 0.00 0.00 68 1003.9
20260505213507 89 162 1.7 7.8 0.00 0.00 0.00 66 1004.0
20260505213017 88 251 1.7 8.7 0.00 0.00 0.00 67 1004.2
20260505212508 88 255 2.6 8.7 0.00 0.00 0.00 66 1004.2
20260505212009 88 170 2.6 9.6 0.00 0.00 0.00 68 1004.2
20260505211520 88 232 3.5 9.6 0.00 0.00 0.00 66 1004.2
20260505211008 88 207 4.3 11.3 0.00 0.00 0.00 66 1004.4
20260505210510 88 198 2.6 11.3 0.00 0.00 0.00 68 1004.5
20260505210022 88 187 4.3 10.4 0.00 0.00 0.00 67 1004.3
20260505205509 88 210 1.7 10.4 0.00 0.00 0.00 68 1004.3
20260505205010 88 127 2.6 8.7 0.00 0.00 0.00 68 1004.5
20260505204511 88 131 4.3 8.7 0.00 0.00 0.00 68 1004.6
20260505204010 88 130 2.6 8.7 0.00 0.00 0.00 68 1004.7
20260505203505 88 241 2.6 10.4 0.00 0.00 0.00 67 1004.9
20260505203026 87 154 2.6 10.4 0.00 0.00 0.00 68 1004.8
20260505202509 88 222 4.3 10.4 0.00 0.00 0.00 67 1005.0
20260505202009 87 113 3.5 10.4 0.00 0.00 0.00 68 1005.0
20260505201528 87 108 3.5 10.4 0.00 0.00 0.00 69 1005.0
20260505201008 87 195 3.5 8.7 0.00 0.00 0.00 68 1005.1
20260505200509 86 45 1.7 9.6 0.00 0.00 0.00 70 1005.2
20260505200021 86 117 4.3 9.6 0.00 0.00 0.00 69 1005.2
20260505195513 86 219 2.6 9.6 0.00 0.00 0.00 70 1005.2
20260505195010 86 227 4.3 10.4 0.00 0.00 0.00 70 1005.3
20260505194523 86 173 3.5 10.4 0.00 0.00 0.00 69 1005.3
20260505194014 85 221 4.3 9.6 0.00 0.00 0.00 70 1005.3
20260505193503 86 203 4.3 9.6 0.00 0.00 0.00 70 1005.3
20260505193013 85 212 4.3 10.4 0.00 0.00 0.00 70 1005.3
20260505192508 85 210 4.3 10.4 0.00 0.00 0.00 70 1005.3
20260505192006 85 95 2.6 9.6 0.00 0.00 0.00 71 1005.3
20260505191520 85 214 2.6 10.4 0.00 0.00 0.00 71 1005.4
20260505191011 85 214 3.5 10.4 0.00 0.00 0.00 72 1005.4
20260505190506 84 194 5.2 10.4 0.00 0.00 0.00 71 1005.5
20260505190022 84 293 3.5 11.3 0.00 0.00 0.00 72 1005.6
20260505185510 84 219 4.3 11.3 0.00 0.00 0.00 72 1005.6
20260505185012 84 171 4.3 9.6 0.00 0.00 0.00 73 1005.6
20260505184527 83 232 3.5 12.2 0.00 0.00 0.00 73 1005.7
20260505184012 83 166 6.1 12.2 0.00 0.00 0.00 71 1005.7
20260505183511 83 139 3.5 12.2 0.00 0.00 0.00 72 1005.8
20260505183027 83 187 6.1 12.2 0.00 0.00 0.00 72 1005.9
20260505182517 83 229 3.5 10.4 0.00 0.00 0.00 72 1005.9
20260505182007 83 196 3.5 11.3 0.00 0.00 0.00 73 1005.9
20260505181514 82 146 4.3 13.9 0.00 0.00 0.00 73 1006.0
20260505181009 82 252 4.3 13.9 0.00 0.00 0.00 73 1005.9
20260505180508 82 209 6.1 15.6 0.00 0.00 0.00 72 1006.0
20260505180037 82 125 6.1 15.6 0.00 0.00 0.00 74 1005.9
20260505175509 82 307 4.3 12.2 0.00 0.00 0.00 75 1005.8
20260505175008 81 233 1.7 13.9 0.00 0.00 0.00 77 1005.9
20260505174545 80 252 6.1 13.9 0.00 0.00 0.00 75 1005.8
20260505174009 81 176 7.0 13.9 0.00 0.00 0.00 74 1005.8
20260505173508 81 188 3.5 11.3 0.00 0.00 0.00 75 1005.8
20260505173032 81 187 5.2 11.3 0.00 0.00 0.00 75 1005.9
20260505172511 81 146 3.5 12.2 0.00 0.00 0.00 76 1005.9
20260505172012 81 165 4.3 12.2 0.00 0.00 0.00 76 1005.8
20260505171526 80 237 1.7 10.4 0.00 0.00 0.00 78 1005.9
20260505171011 79 187 0.9 12.2 0.00 0.00 0.00 79 1005.8
20260505170505 79 214 5.2 12.2 0.00 0.00 0.00 78 1005.7
20260505170018 79 189 6.1 12.2 0.00 0.00 0.00 78 1005.7
20260505165509 79 173 5.2 12.2 0.00 0.00 0.00 78 1005.7
20260505165009 79 183 6.1 12.2 0.00 0.00 0.00 78 1005.7
20260505164522 79 146 5.2 13.0 0.00 0.00 0.00 78 1005.8
20260505164008 79 217 3.5 13.0 0.00 0.00 0.00 78 1005.8
20260505163510 78 199 4.3 11.3 0.00 0.00 0.00 78 1005.9
20260505163025 78 202 6.1 12.2 0.00 0.00 0.00 78 1006.0
20260505162508 78 205 4.3 12.2 0.00 0.00 0.00 79 1006.0
20260505162010 78 212 6.1 12.2 0.00 0.00 0.00 79 1006.0
20260505161528 77 196 5.2 17.4 0.00 0.00 0.00 80 1005.9
20260505161009 77 211 6.1 17.4 0.00 0.00 0.00 79 1005.9
20260505160508 77 156 7.8 17.4 0.00 0.00 0.00 79 1005.8
20260505153006 75 174 7.0 13.9 0.00 0.00 0.00 82 1005.7
20260505152505 75 230 5.2 13.9 0.00 0.00 0.00 82 1005.8
20260505152007 75 95 5.2 16.5 0.00 0.00 0.00 82 1005.9
20260505151512 75 185 7.0 16.5 0.00 0.00 0.00 82 1006.1
20260505151009 75 200 6.1 13.0 0.00 0.00 0.00 82 1006.1
20260505150510 75 198 5.2 13.0 0.00 0.00 0.00 82 1006.2
20260505140504 74 202 7.0 13.9 0.00 0.00 0.00 84 1005.5
20260505125004 70 221 5.2 13.9 0.00 0.00 0.00 89 1005.2
20260505124512 70 162 3.5 11.3 0.00 0.00 0.00 90 1005.1
20260505124008 70 216 4.3 11.3 0.00 0.00 0.00 90 1005.1
20260505123507 70 211 3.5 12.2 0.00 0.00 0.00 90 1005.1
20260505123017 70 196 2.6 12.2 0.00 0.00 0.00 90 1005.2
20260505122507 70 176 2.6 11.3 0.00 0.00 0.00 90 1005.0
20260505122008 69 195 3.5 13.0 0.00 0.00 0.00 90 1005.0
20260505121522 69 216 5.2 13.0 0.00 0.00 0.00 90 1004.8
20260505121009 69 250 4.3 10.4 0.00 0.00 0.00 90 1004.8
20260505120508 69 30 4.3 10.4 0.00 0.00 0.00 90 1004.8
20260505120031 69 213 4.3 12.2 0.00 0.00 0.00 90 1004.9
20260505115505 69 229 5.2 12.2 0.00 0.00 0.00 90 1004.9
20260505115005 69 228 5.2 11.3 0.00 0.00 0.00 90 1004.8
20260505114510 69 256 5.2 13.0 0.00 0.00 0.00 90 1004.8
20260505114007 69 246 5.2 13.0 0.00 0.00 0.00 90 1004.6
20260505113510 69 231 4.3 9.6 0.00 0.00 0.00 90 1004.8
20260505113019 69 165 2.6 12.2 0.00 0.00 0.00 90 1004.7